EDT,Max TemperatureF,Mean TemperatureF,Min TemperatureF,Max Dew PointF,MeanDew PointF,Min DewpointF,Max Humidity, Mean Humidity, Min Humidity, Max Sea Level PressureIn, Mean Sea Level PressureIn, Min Sea Level PressureIn, Max VisibilityMiles, Mean VisibilityMiles, Min VisibilityMiles, Max Wind SpeedMPH, Mean Wind SpeedMPH, Max Gust SpeedMPH,PrecipitationIn, CloudCover, Events, WindDirDegrees
2013-10-1,77,66,55,58,55,51,93,72,40,30.07,30.03,29.98,10,10,9,9,4,,0.00,3,,175
2013-10-2,79,66,54,63,56,50,90,74,43,30.14,30.04,29.99,10,10,10,13,5,20,0.00,3,,205
2013-10-3,77,62,48,58,50,45,93,71,37,30.19,30.12,30.05,10,10,10,7,2,,0.01,2,Rain,132
2013-10-4,82,70,61,68,65,59,100,89,60,30.10,30.05,29.99,10,6,1,8,2,,0.23,7,Rain-Thunderstorm,338
2013-10-5,72,66,60,65,61,59,100,93,78,30.14,30.09,30.04,10,5,0,13,3,,1.14,7,Fog-Rain-Thunderstorm,319
2013-10-6,86,72,60,69,63,59,100,86,49,30.04,29.94,29.80,10,7,2,17,3,24,0.07,5,Rain,160
2013-10-7,73,63,52,63,53,39,90,72,44,30.11,29.80,29.66,10,9,2,16,8,26,0.53,6,Rain,167
2013-10-8,64,54,43,46,43,40,100,76,41,30.41,30.31,30.13,10,10,10,8,2,,0.00,1,,142
2013-10-9,70,54,39,44,40,33,96,68,28,30.46,30.39,30.33,10,10,10,9,6,,0.00,0,,137
2013-10-10,69,55,41,47,42,38,89,73,39,30.34,30.28,30.21,10,10,10,10,6,,0.00,0,,131
2013-10-11,71,60,46,48,45,38,86,70,33,30.20,30.18,30.14,10,10,10,8,2,,0.00,3,,7
2013-10-12,77,59,43,48,41,34,89,61,22,30.26,30.21,30.17,10,10,10,12,6,,0.00,0,,140
2013-10-13,66,58,51,61,54,42,94,81,64,30.33,30.30,30.24,10,9,2,9,6,,0.09,7,Rain,148
2013-10-14,62,54,48,58,54,48,100,91,72,30.39,30.33,30.29,10,7,2,12,6,,0.25,7,Rain,341
2013-10-15,69,59,50,56,51,48,100,88,63,30.33,30.22,30.02,10,6,0,10,2,16,0.00,7,Fog,146
2013-10-16,64,60,57,58,53,47,94,76,58,30.01,29.90,29.81,10,10,10,13,8,,0.18,5,Rain,132
2013-10-17,68,57,48,55,50,45,100,84,47,29.93,29.81,29.69,10,6,2,8,3,,0.53,5,Rain,265
2013-10-18,61,54,46,47,42,39,83,69,50,29.98,29.90,29.77,10,10,9,9,3,,0.01,6,,216
2013-10-19,63,54,46,46,42,40,83,67,44,29.96,29.83,29.70,10,10,7,14,5,24,0.05,5,Rain,151
2013-10-20,52,48,43,42,40,37,89,76,61,30.04,29.95,29.84,10,10,7,10,4,,0.00,7,Rain,133
2013-10-21,69,56,43,40,37,33,82,54,27,30.05,29.96,29.82,10,10,10,14,7,24,0.00,2,,162
2013-10-22,55,48,41,49,39,29,92,73,41,29.91,29.85,29.79,10,9,3,13,6,22,0.10,6,Rain,299
2013-10-23,46,41,36,37,35,34,97,79,63,29.87,29.80,29.73,10,10,3,9,2,,0.05,7,Rain,350
2013-10-24,48,40,32,36,33,28,96,77,48,30.08,29.95,29.86,10,10,5,13,4,25,0.09,5,Rain,261
2013-10-25,52,42,35,37,35,32,97,82,50,30.24,30.16,30.04,10,10,6,15,2,26,0.02,8,Rain,283
2013-10-26,50,46,41,32,27,25,63,50,38,30.18,29.96,29.86,10,10,10,14,8,29,0.00,7,Rain,186
2013-10-27,46,42,37,39,35,29,93,75,51,30.12,30.01,29.85,10,9,2,10,4,25,0.08,7,Rain,252
2013-10-28,51,41,34,38,33,25,86,69,51,30.43,30.27,30.11,10,10,10,10,5,,0.00,5,,337
2013-10-29,50,38,28,32,29,26,96,66,43,30.51,30.43,30.35,10,9,3,6,1,,0.00,4,,287
2013-10-30,63,50,37,40,37,33,89,69,41,30.33,30.24,30.16,10,10,9,7,3,,0.00,3,Rain,135
2013-10-31,68,54,41,57,50,37,94,80,65,30.14,29.85,29.48,10,9,2,17,8,26,0.30,5,Rain,150